Погода в Графтоне

Австралия     29°42′25″S   152°56′26″E
темп.,
°C
ветер,
м/с
пор.,
м/с
влажн.,
%
обл.,
%
осадки,
мм/ч
давл.,
гПа
погр.,
м
6 марта, сб
сб623:00+18ю28957 0.1 1010412
02:00+18ю289370 0.2 1009350
05:00+16ююз129658 0.2 100943
08:00+18ю12918 0.0 1010114
11:00+22юв358313 1.2 1011728
14:00+23вюв367538 1.9 1010981
17:00+22юв366850 2.4 10101089
20:00+19ююв158398 0.1 1013276
7 марта, вс
вс723:00+18ююз129298 0.3 101445
02:00+18юз1197100 0.4 101447
05:00+17юз119887 0.4 101427
08:00+18юз119480 0.0 101595
11:00+23ю117582 0.3 1016612
14:00+24всв337156 0.8 1014845
17:00+25св346337 1.0 10131096
20:00+19всв248819 0.1 1015108
8 марта, пн
пн823:00+19сз018748 0.1 101723
02:00+17ссз119599 0.0 101623
05:00+16сз119899 0.0 101627
08:00+19сз1290100 0.0 1017141
11:00+25ссз256685 0.0 1017822
14:00+30ссз245072 0.0 10151416
17:00+29ссв245574 0.0 10131417
20:00+21св239399 2.6 101484
9 марта, вт
вт923:00+20ссв2597100 2.6 1016164
02:00+19с139888 0.0 1014119
05:00+18ссз129983 0.0 101567
08:00+19сз239651 0.0 1016156
11:00+26сз236567 0.0 1016545
14:00+30с125229 0.0 1014990
17:00+30з235119 0.1 10131811
20:00+21св25941 2.3 1015115
10 марта, ср
ср1023:00+19ююз11980 2.8 101726
02:00+19з11980 0.0 101623
05:00+18зюз11970 0.0 101623
08:00+19юз119364 0.0 101859
11:00+27в016678 0.0 1018604
14:00+25юв128082 1.4 1017425
17:00+23вюв269076 2.1 1016278
20:00+21вюв1297100 0.3 101830